Vorticity
-10 -4 -12 9 -6 19 5 12 13 3 17 11 6 12 3 5 10 5 6 9 4 -1 5 6 7 4 3 6 5 8 6 10 2 -3 0 4 4 13 11 7 6 4 4 7
4 6 11 28 13 -0 6 9 5 2 16 14 10 2 6 8 4 6 8 2 3 9 12 11 8 3 7 7 8 6 8 1 2 -3 14 12 13 8 4 6 9 8 6 6
4 13 19 3 1 3 10 18 4 -0 13 2 4 -1 4 4 9 11 16 14 7 5 4 3 3 6 6 2 4 6 11 11 9 14 12 7 2 1 3 2 2 3 3 3
10 23 20 15 9 1 -2 5 3 1 4 15 8 4 2 9 8 2 2 3 2 2 4 5 7 9 1 3 13 16 14 13 9 6 3 1 2 3 5 3 5 3 5 4
3 1 4 6 4 12 -3 -4 19 12 -11 18 -8 14 -4 4 5 -1 1 2 4 4 5 8 6 3 8 19 13 9 6 5 4 3 3 4 4 3 4 4 4 7 9 8
42 -8 -8 -1 1 5 16 8 17 9 5 6 11 8 11 -2 10 1 3 4 6 5 8 7 5 10 16 8 5 4 4 5 4 3 2 2 2 3 2 3 8 4 6 8
1 -4 -2 -2 0 22 18 13 -5 8 9 14 14 -3 14 -7 6 5 4 6 7 10 8 9 16 11 7 5 2 4 5 3 3 2 3 2 2 1 1 5 1 6 6 9
10 8 21 19 12 4 14 4 -3 5 14 1 7 15 12 7 13 10 13 14 18 13 18 13 7 6 4 0 3 3 2 3 4 3 3 3 3 6 13 -2 2 6 5 9
13 1 5 12 6 3 14 5 7 -5 -1 3 8 3 14 19 16 18 25 22 18 10 4 3 5 6 1 0 2 3 3 4 4 3 3 4 4 3 5 8 6 7 8 10
15 1 16 6 7 8 7 7 6 7 5 16 12 13 13 18 21 16 8 4 5 2 3 4 3 2 2 2 2 2 2 3 3 4 3 1 2 2 5 6 6 7 10 7
2 9 12 5 9 7 15 9 8 6 9 9 14 14 5 5 0 2 5 2 2 5 4 4 4 4 3 3 3 3 3 3 4 5 6 9 8 6 5 6 7 10 10 10
5 6 6 10 11 8 6 8 12 14 9 8 9 -2 3 3 5 5 4 5 5 5 5 5 4 4 4 4 4 5 5 6 6 8 7 8 10 9 7 6 9 9 9 9
6 7 7 8 9 10 10 16 10 9 9 8 4 4 3 4 4 3 4 4 3 3 3 3 4 6 5 6 6 5 8 7 5 6 7 9 12 9 7 7 9 11 9 4
8 9 9 13 7 11 11 7 8 6 7 4 4 -1 7 2 0 3 3 4 4 4 5 5 6 5 4 5 5 8 9 5 7 9 11 11 10 7 7 9 11 8 1 3
11 13 18 12 13 11 7 8 7 5 6 1 0 1 -1 -0 1 3 2 3 3 2 2 4 5 6 5 8 9 10 8 7 10 13 11 8 9 8 8 12 10 4 3 5
8 13 8 10 9 8 8 8 5 7 7 5 4 4 3 2 1 1 1 1 2 4 7 8 8 9 10 11 11 8 10 12 14 10 8 6 11 7 10 10 7 6 4 4
14 11 9 8 8 7 6 11 9 6 5 6 4 4 -0 3 2 2 3 4 7 7 7 10 11 11 10 9 11 12 15 11 8 5 8 10 8 7 12 6 5 5 3 6
13 12 8 5 5 5 6 9 7 5 5 3 3 5 3 5 5 6 7 7 9 9 9 8 9 11 12 13 16 11 8 5 5 10 12 12 -2 -5 5 6 1 4 9 5
10 7 6 6 7 6 7 9 9 8 9 8 10 9 9 8 9 11 6 6 7 7 10 13 12 14 15 11 8 4 3 14 17 8 17 -2 -7 2 -5 1 5 9 8 -2
13 11 11 11 12 14 16 13 11 11 7 9 8 8 6 6 6 7 11 12 14 13 14 13 13 14 9 3 4 6 14 13 0 15 19 17 4 15 3 3 7 11 2 4
9 10 9 8 5 5 4 6 6 5 2 6 7 5 8 11 11 14 11 13 12 13 15 15 11 4 3 8 7 10 -0 25 5 -23 -2 14 18 14 -5 13 15 -1 9 6
4 3 3 3 3 4 4 3 7 6 4 6 7 9 12 12 11 10 12 12 14 11 6 5 6 8 8 13 12 6 10 0 52 -19 5 4 14 3 24 9 -0 8 -3 16
3 4 3 5 3 4 3 4 3 5 8 10 13 13 11 10 10 10 9 12 8 8 7 6 10 12 11 5 5 13 -3 20 16 -30 -7 7 37 30 -5 3 12 12 21 16
2 4 5 5 3 3 4 6 7 8 11 13 13 10 9 10 11 10 9 8 7 6 10 11 9 6 4 6 10 2 10 17 -4 23 12 26 13 -10 10 15 25 16 16 23
3 3 5 5 8 3 8 3 15 13 14 10 7 8 11 9 9 10 8 10 11 7 6 5 5 5 9 8 4 19 -3 4 4 18 23 8 -1 5 11 10 11 17 21 15
4 4 6 6 5 10 8 15 16 8 6 10 9 7 8 9 10 12 12 6 4 5 6 6 8 7 7 13 11 17 17 2 21 14 6 6 10 12 14 17 20 16 12 12
Height
5764 5768 5771 5774 5776 5780 5786 5788 5790 5789 5788 5790 5792 5790 5791 5792 5792 5793 5793 5794 5794 5794 5794 5795 5794 5794 5794 5793 5791 5791 5788 5786 5785 5784 5782 5779 5775 5772 5767 5762 5758 5756 5752 5750
5767 5769 5771 5775 5777 5781 5785 5788 5788 5786 5787 5788 5790 5792 5790 5791 5791 5792 5792 5792 5793 5793 5793 5793 5793 5792 5791 5789 5788 5788 5785 5783 5781 5779 5776 5773 5770 5765 5761 5758 5755 5751 5745 5739
5765 5771 5773 5776 5778 5781 5784 5787 5784 5788 5788 5789 5791 5792 5789 5789 5790 5790 5790 5791 5791 5791 5791 5791 5790 5790 5789 5786 5785 5783 5781 5779 5777 5774 5771 5768 5763 5760 5757 5753 5748 5742 5736 5729
5766 5769 5772 5775 5779 5781 5782 5784 5784 5787 5787 5788 5788 5792 5786 5789 5789 5789 5790 5790 5789 5789 5788 5788 5787 5787 5784 5783 5781 5778 5776 5774 5772 5769 5766 5762 5759 5755 5750 5743 5737 5731 5727 5721
5767 5771 5774 5777 5774 5780 5778 5781 5784 5785 5786 5781 5787 5789 5784 5785 5789 5789 5788 5787 5787 5786 5785 5784 5783 5782 5780 5778 5776 5775 5773 5770 5768 5764 5761 5757 5752 5747 5740 5734 5729 5723 5717 5710
5764 5771 5773 5774 5776 5777 5779 5781 5782 5783 5786 5786 5786 5785 5791 5783 5786 5785 5785 5784 5783 5782 5781 5780 5779 5777 5776 5775 5773 5771 5768 5765 5762 5759 5754 5749 5743 5737 5731 5726 5720 5714 5707 5700
5768 5769 5771 5773 5775 5775 5777 5780 5782 5785 5785 5784 5782 5784 5785 5784 5777 5780 5780 5779 5779 5778 5777 5776 5775 5774 5772 5771 5769 5766 5763 5760 5756 5751 5746 5740 5734 5729 5723 5716 5710 5703 5696 5689
5769 5770 5769 5771 5773 5776 5775 5780 5781 5779 5782 5784 5780 5781 5784 5780 5778 5778 5776 5775 5775 5774 5774 5773 5771 5770 5768 5766 5764 5760 5757 5752 5748 5742 5737 5731 5725 5720 5714 5707 5700 5692 5684 5677
5767 5763 5766 5768 5769 5772 5774 5775 5776 5777 5777 5778 5779 5779 5777 5776 5774 5773 5773 5772 5771 5771 5771 5769 5767 5766 5764 5761 5757 5753 5749 5744 5738 5733 5728 5722 5717 5710 5704 5697 5689 5680 5672 5663
5763 5765 5764 5765 5767 5769 5770 5771 5774 5773 5773 5773 5777 5776 5776 5772 5771 5771 5770 5770 5769 5768 5767 5765 5763 5761 5757 5754 5750 5745 5740 5735 5730 5725 5719 5712 5706 5700 5692 5684 5676 5668 5658 5650
5759 5761 5760 5762 5764 5766 5767 5767 5769 5769 5770 5770 5771 5774 5770 5770 5769 5769 5768 5767 5766 5764 5762 5760 5757 5754 5750 5746 5741 5737 5731 5726 5720 5715 5708 5701 5694 5687 5680 5672 5664 5655 5646 5638
5755 5757 5756 5759 5759 5761 5762 5764 5765 5766 5767 5767 5767 5769 5767 5766 5766 5766 5765 5763 5761 5759 5756 5753 5750 5746 5742 5737 5732 5727 5722 5716 5710 5703 5696 5689 5682 5675 5667 5659 5650 5642 5633 5624
5752 5753 5754 5755 5758 5759 5760 5761 5762 5762 5763 5765 5765 5765 5763 5763 5762 5761 5759 5757 5755 5753 5749 5745 5742 5737 5732 5727 5722 5717 5711 5705 5699 5691 5684 5676 5670 5662 5654 5645 5636 5628 5620 5611
5747 5749 5750 5753 5756 5754 5756 5757 5758 5758 5760 5761 5762 5761 5760 5758 5757 5755 5754 5750 5747 5745 5740 5736 5732 5727 5722 5716 5711 5705 5700 5693 5686 5679 5671 5663 5657 5648 5640 5632 5623 5615 5607 5598
5743 5744 5745 5746 5748 5750 5751 5753 5754 5755 5758 5757 5760 5756 5756 5752 5749 5748 5746 5744 5740 5736 5732 5727 5722 5717 5711 5705 5699 5693 5687 5681 5673 5666 5659 5651 5644 5637 5628 5619 5610 5602 5594 5583
5738 5739 5741 5743 5745 5746 5747 5749 5751 5752 5752 5752 5752 5750 5749 5745 5742 5740 5737 5734 5731 5726 5721 5716 5711 5705 5699 5693 5687 5682 5675 5668 5661 5654 5647 5640 5632 5623 5615 5606 5598 5589 5579 5569
5733 5736 5737 5739 5741 5741 5743 5746 5746 5746 5746 5745 5743 5744 5739 5736 5733 5731 5727 5723 5719 5715 5710 5704 5699 5693 5687 5681 5676 5669 5663 5656 5649 5642 5634 5627 5619 5611 5602 5593 5584 5574 5564 5554
5730 5731 5733 5735 5736 5737 5740 5741 5740 5739 5740 5738 5735 5735 5730 5727 5724 5720 5716 5712 5708 5703 5698 5693 5687 5681 5675 5669 5663 5657 5650 5644 5637 5629 5622 5615 5607 5598 5588 5579 5569 5559 5549 5537
5726 5728 5729 5730 5732 5733 5733 5733 5734 5733 5733 5728 5727 5725 5722 5717 5714 5711 5704 5703 5696 5691 5686 5680 5674 5669 5663 5658 5651 5646 5638 5631 5624 5617 5609 5601 5593 5583 5574 5564 5554 5544 5532 5523
5723 5724 5725 5726 5727 5727 5726 5727 5727 5725 5724 5721 5720 5716 5712 5708 5704 5700 5694 5688 5683 5678 5673 5667 5662 5657 5652 5646 5640 5633 5626 5618 5611 5604 5596 5590 5580 5570 5559 5548 5537 5527 5518 5508
5719 5720 5721 5720 5721 5721 5721 5720 5719 5718 5718 5712 5709 5705 5701 5698 5693 5688 5682 5677 5672 5667 5662 5658 5652 5646 5640 5634 5627 5620 5613 5604 5597 5589 5583 5574 5564 5554 5543 5531 5521 5513 5502 5491
5716 5716 5716 5716 5715 5715 5714 5712 5711 5709 5705 5701 5697 5692 5689 5684 5680 5676 5672 5667 5661 5656 5651 5648 5641 5635 5628 5621 5614 5608 5600 5593 5585 5578 5569 5559 5549 5537 5525 5517 5510 5500 5489 5479
5711 5711 5710 5711 5708 5705 5703 5702 5699 5697 5693 5689 5685 5682 5676 5673 5668 5663 5659 5655 5650 5645 5640 5634 5627 5621 5615 5609 5602 5595 5589 5579 5572 5561 5552 5542 5530 5519 5512 5504 5495 5484 5474 5464
5703 5703 5702 5701 5699 5695 5693 5691 5688 5685 5681 5678 5674 5670 5667 5662 5657 5652 5647 5644 5639 5633 5628 5622 5616 5609 5603 5595 5588 5581 5573 5565 5556 5547 5535 5524 5517 5508 5498 5489 5480 5471 5462 5455
5696 5695 5692 5692 5690 5685 5684 5679 5678 5673 5670 5668 5664 5659 5656 5650 5646 5641 5636 5632 5626 5620 5616 5609 5603 5596 5588 5582 5574 5566 5558 5550 5540 5529 5521 5513 5505 5496 5487 5477 5468 5458 5450 5442
5687 5684 5683 5681 5678 5676 5672 5669 5667 5663 5661 5657 5652 5647 5644 5639 5634 5629 5625 5619 5614 5608 5602 5595 5589 5582 5575 5568 5560 5552 5544 5535 5525 5518 5509 5500 5491 5481 5472 5465 5457 5449 5441 5433